| time (UTC) | temp F | wind direction | speed knots | gust knots | rain 1hr in | rain 24hr in | rain mn in | humidity % | barometer mb |
| 20260906113037 | 70 | 68 | 0.0 | 1.7 | 0.00 | 0.00 | 0.00 | 86 | 1016.4 |
| 20260906111517 | 70 | 69 | 0.0 | 0.9 | 0.00 | 0.00 | 0.00 | 86 | 1016.3 |
| 20260906110018 | 70 | 69 | 0.0 | 0.0 | 0.00 | 0.00 | 0.00 | 86 | 1016.2 |
| 20260906104520 | 70 | 69 | 0.0 | 2.6 | 0.00 | 0.00 | 0.00 | 86 | 1016.1 |
| 20260906103009 | 71 | 69 | 0.0 | 1.7 | 0.00 | 0.00 | 0.00 | 85 | 1015.6 |
| 20260906101508 | 71 | 69 | 0.0 | 0.9 | 0.00 | 0.00 | 0.00 | 85 | 1015.6 |
| 20260906100015 | 71 | 69 | 0.0 | 2.6 | 0.00 | 0.00 | 0.00 | 86 | 1015.5 |
| 20260906094507 | 71 | 69 | 0.0 | 0.9 | 0.00 | 0.00 | 0.00 | 85 | 1015.5 |
| 20260906093008 | 72 | 72 | 0.0 | 2.6 | 0.00 | 0.00 | 0.00 | 85 | 1015.4 |
| 20260906091515 | 72 | 71 | 0.0 | 2.6 | 0.00 | 0.00 | 0.00 | 86 | 1015.4 |
| 20260906090006 | 72 | 76 | 0.0 | 3.5 | 0.00 | 0.00 | 0.00 | 86 | 1015.4 |
| 20260906084505 | 72 | 71 | 0.0 | 0.9 | 0.00 | 0.00 | 0.00 | 86 | 1015.4 |
| 20260906083012 | 72 | 69 | 0.0 | 2.6 | 0.00 | 0.00 | 0.00 | 86 | 1015.3 |
| 20260906081509 | 72 | 60 | 0.0 | 0.0 | 0.00 | 0.00 | 0.00 | 86 | 1015.3 |
| 20260906080004 | 72 | 58 | 0.0 | 1.7 | 0.00 | 0.00 | 0.00 | 87 | 1015.3 |
| 20260906074503 | 72 | 56 | 0.0 | 2.6 | 0.00 | 0.00 | 0.00 | 87 | 1015.3 |
| 20260906073002 | 72 | 64 | 0.0 | 3.5 | 0.00 | 0.00 | 0.00 | 88 | 1015.3 |
| 20260906071501 | 72 | 333 | 0.0 | 2.6 | 0.00 | 0.00 | 0.00 | 88 | 1015.5 |
| 20260906070100 | 71 | 344 | 0.0 | 1.7 | 0.00 | 0.00 | 0.00 | 88 | 1015.5 |
| 20260906064600 | 71 | 344 | 0.0 | 2.6 | 0.00 | 0.00 | 0.00 | 88 | 1015.4 |
| 20260906063059 | 71 | 360 | 0.0 | 2.6 | 0.00 | 0.00 | 0.00 | 88 | 1015.4 |
| 20260906061609 | 71 | 328 | 0.0 | 2.6 | 0.00 | 0.00 | 0.00 | 88 | 1015.4 |
| 20260906060058 | 71 | 340 | 0.0 | 0.9 | 0.00 | 0.00 | 0.00 | 89 | 1015.4 |
| 20260906054558 | 71 | 263 | 0.0 | 2.6 | 0.00 | 0.00 | 0.00 | 89 | 1015.4 |
| 20260906053055 | 71 | 345 | 0.0 | 2.6 | 0.00 | 0.00 | 0.00 | 89 | 1015.3 |
| 20260906051601 | 71 | 57 | 0.0 | 2.6 | 0.00 | 0.00 | 0.00 | 89 | 1015.1 |
| 20260906050054 | 71 | 333 | 0.9 | 3.5 | 0.00 | 0.00 | 0.00 | 89 | 1015.0 |
| 20260906044551 | 71 | 5 | 0.0 | 4.3 | 0.00 | 0.00 | 0.00 | 89 | 1014.9 |
| 20260906043047 | 72 | 286 | 0.0 | 7.0 | 0.00 | 0.00 | 0.00 | 88 | 1014.7 |
| 20260906041547 | 72 | 83 | 1.7 | 5.2 | 0.00 | 0.00 | 0.00 | 88 | 1014.5 |
| 20260906040047 | 72 | 45 | 1.7 | 5.2 | 0.00 | 0.00 | 0.00 | 88 | 1014.4 |
| 20260906034545 | 72 | 42 | 0.9 | 4.3 | 0.00 | 0.00 | 0.00 | 88 | 1014.4 |
| 20260906033048 | 72 | 52 | 1.7 | 6.1 | 0.00 | 0.00 | 0.00 | 87 | 1014.4 |
| 20260906031555 | 72 | 35 | 1.7 | 6.1 | 0.00 | 0.00 | 0.00 | 87 | 1014.5 |
| 20260906030044 | 72 | 38 | 2.6 | 6.1 | 0.00 | 0.00 | 0.00 | 87 | 1014.5 |
| 20260906024542 | 72 | 82 | 1.7 | 7.0 | 0.00 | 0.00 | 0.00 | 86 | 1014.3 |
| 20260906023041 | 72 | 24 | 2.6 | 7.8 | 0.00 | 0.00 | 0.00 | 86 | 1014.3 |
| 20260906021543 | 72 | 12 | 1.7 | 7.0 | 0.00 | 0.00 | 0.00 | 86 | 1014.4 |
| 20260906020040 | 72 | 9 | 2.6 | 7.0 | 0.00 | 0.00 | 0.00 | 85 | 1014.5 |
| 20260906014540 | 72 | 72 | 0.9 | 6.1 | 0.00 | 0.00 | 0.00 | 85 | 1014.4 |
| 20260906013040 | 72 | 329 | 0.9 | 5.2 | 0.00 | 0.00 | 0.00 | 85 | 1014.5 |
| 20260906011541 | 72 | 346 | 1.7 | 7.8 | 0.00 | 0.00 | 0.00 | 85 | 1014.3 |
| 20260906010035 | 72 | 71 | 1.7 | 7.0 | 0.00 | 0.00 | 0.00 | 85 | 1014.0 |
| 20260906004534 | 72 | 65 | 1.7 | 7.0 | 0.00 | 0.00 | 0.00 | 85 | 1013.7 |
| 20260906003032 | 72 | 348 | 1.7 | 5.2 | 0.00 | 0.00 | 0.00 | 85 | 1013.6 |
| 20260906001531 | 73 | 49 | 1.7 | 7.8 | 0.00 | 0.00 | 0.00 | 84 | 1013.6 |
| 20260906000030 | 73 | 355 | 2.6 | 6.1 | 0.00 | 0.00 | 0.00 | 84 | 1013.6 |
| 20260905234529 | 73 | 355 | 2.6 | 8.7 | 0.00 | 0.00 | 0.00 | 85 | 1013.6 |
| 20260905233028 | 73 | 292 | 0.9 | 7.0 | 0.00 | 0.00 | 0.00 | 85 | 1013.7 |
| 20260905231527 | 73 | 339 | 2.6 | 9.6 | 0.00 | 0.00 | 0.00 | 85 | 1013.7 |
| 20260905230028 | 73 | 300 | 4.3 | 11.3 | 0.00 | 0.00 | 0.00 | 84 | 1013.4 |
| 20260905224532 | 74 | 28 | 3.5 | 7.8 | 0.00 | 0.00 | 0.00 | 83 | 1013.5 |
| 20260905223022 | 75 | 286 | 2.6 | 9.6 | 0.00 | 0.00 | 0.00 | 83 | 1013.4 |
| 20260905221521 | 75 | 295 | 2.6 | 9.6 | 0.00 | 0.00 | 0.00 | 83 | 1013.2 |
| 20260905220021 | 76 | 45 | 3.5 | 10.4 | 0.00 | 0.00 | 0.00 | 82 | 1013.1 |
| 20260905214520 | 76 | 121 | 3.5 | 8.7 | 0.00 | 0.00 | 0.00 | 82 | 1013.0 |
| 20260905213015 | 76 | 60 | 4.3 | 9.6 | 0.00 | 0.00 | 0.00 | 81 | 1012.7 |
| 20260905211514 | 77 | 344 | 2.6 | 7.8 | 0.00 | 0.00 | 0.00 | 81 | 1012.7 |
| 20260905210011 | 77 | 355 | 2.6 | 8.7 | 0.00 | 0.00 | 0.00 | 81 | 1012.8 |
| 20260905204516 | 78 | 57 | 2.6 | 9.6 | 0.00 | 0.00 | 0.00 | 80 | 1012.8 |
| 20260905203010 | 78 | 326 | 3.5 | 10.4 | 0.00 | 0.00 | 0.00 | 79 | 1012.7 |
| 20260905201510 | 78 | 265 | 2.6 | 7.8 | 0.00 | 0.00 | 0.00 | 78 | 1012.7 |
| 20260905200009 | 78 | 26 | 2.6 | 7.8 | 0.00 | 0.00 | 0.00 | 78 | 1012.9 |
| 20260905194509 | 78 | 319 | 4.3 | 9.6 | 0.00 | 0.00 | 0.00 | 78 | 1012.9 |
| 20260905193010 | 78 | 318 | 2.6 | 9.6 | 0.00 | 0.00 | 0.00 | 78 | 1013.0 |
| 20260905191508 | 78 | 344 | 3.5 | 7.8 | 0.00 | 0.00 | 0.00 | 78 | 1013.1 |
| 20260905190007 | 78 | 355 | 1.7 | 8.7 | 0.00 | 0.00 | 0.00 | 79 | 1013.1 |
| 20260905184507 | 78 | 347 | 1.7 | 7.8 | 0.00 | 0.00 | 0.00 | 79 | 1013.2 |
| 20260905183005 | 77 | 34 | 3.5 | 7.8 | 0.00 | 0.00 | 0.00 | 80 | 1013.1 |
| 20260905181505 | 77 | 51 | 2.6 | 8.7 | 0.00 | 0.00 | 0.00 | 80 | 1013.2 |
| 20260905180004 | 77 | 355 | 4.3 | 8.7 | 0.00 | 0.00 | 0.00 | 80 | 1013.1 |
| 20260905174606 | 78 | 283 | 1.7 | 7.8 | 0.00 | 0.00 | 0.00 | 80 | 1013.1 |
| 20260905173003 | 78 | 323 | 3.5 | 7.0 | 0.00 | 0.00 | 0.00 | 80 | 1013.1 |
| 20260905171502 | 78 | 84 | 2.6 | 7.0 | 0.00 | 0.00 | 0.00 | 80 | 1013.1 |
| 20260905170002 | 77 | 13 | 3.5 | 11.3 | 0.00 | 0.00 | 0.00 | 80 | 1013.3 |
| 20260905164501 | 77 | 329 | 3.5 | 7.8 | 0.00 | 0.00 | 0.00 | 81 | 1013.3 |
| 20260905163102 | 77 | 46 | 2.6 | 7.0 | 0.00 | 0.00 | 0.00 | 81 | 1013.3 |
| 20260905161600 | 77 | 288 | 1.7 | 8.7 | 0.00 | 0.00 | 0.00 | 82 | 1013.3 |
| 20260905160133 | 78 | 22 | 1.7 | 7.8 | 0.00 | 0.00 | 0.00 | 83 | 1013.1 |
| 20260905154559 | 77 | 17 | 1.7 | 7.8 | 0.00 | 0.00 | 0.00 | 83 | 1013.0 |
| 20260905153054 | 77 | 355 | 2.6 | 8.7 | 0.00 | 0.00 | 0.00 | 84 | 1012.8 |
| 20260905151602 | 77 | 269 | 2.6 | 7.0 | 0.00 | 0.00 | 0.00 | 84 | 1012.7 |
| 20260905150051 | 77 | 355 | 2.6 | 7.0 | 0.00 | 0.00 | 0.00 | 85 | 1012.7 |
| 20260905144551 | 77 | 317 | 1.7 | 8.7 | 0.00 | 0.00 | 0.00 | 86 | 1012.4 |
| 20260905143049 | 76 | 346 | 0.9 | 4.3 | 0.00 | 0.00 | 0.00 | 88 | 1012.3 |
| 20260905141547 | 75 | 273 | 1.7 | 7.0 | 0.00 | 0.00 | 0.00 | 89 | 1012.2 |
| 20260905140045 | 75 | 348 | 0.9 | 5.2 | 0.00 | 0.00 | 0.00 | 91 | 1012.2 |
| 20260905134545 | 75 | 308 | 1.7 | 5.2 | 0.00 | 0.00 | 0.00 | 92 | 1012.3 |
| 20260905133045 | 74 | 286 | 0.0 | 4.3 | 0.00 | 0.00 | 0.00 | 92 | 1012.5 |
| 20260905131541 | 74 | 17 | 1.7 | 5.2 | 0.00 | 0.00 | 0.00 | 92 | 1012.1 |
| 20260905130040 | 74 | 360 | 1.7 | 7.0 | 0.00 | 0.00 | 0.00 | 93 | 1012.0 |
| 20260905124540 | 74 | 317 | 0.9 | 3.5 | 0.00 | 0.00 | 0.00 | 93 | 1011.8 |
| 20260905123033 | 73 | 327 | 0.9 | 2.6 | 0.00 | 0.00 | 0.00 | 93 | 1011.5 |
| 20260905121531 | 73 | 90 | 0.9 | 3.5 | 0.00 | 0.00 | 0.00 | 93 | 1011.4 |
| 20260905120029 | 73 | 49 | 0.0 | 3.5 | 0.00 | 0.00 | 0.00 | 92 | 1011.2 |
| 20260905114528 | 73 | 344 | 0.0 | 3.5 | 0.00 | 0.00 | 0.00 | 92 | 1011.0 |